WetterOnline ( https://www.wetteronline.de )

Wetter aktuell Uckermark

Aktuelles Wetter: Angermünde (55m)

6-stündlich | Neueste Meldungen
Ortszeit Temperatur Wetter
Mo, 21.10. 20:00 14.4° C bedeckt
Mo, 21.10. 14:00 14.5° C wolkig
Mo, 21.10. 8:00 9.9° C Nebel
Mo, 21.10. 2:00 10.7° C bedeckt
So, 20.10. 20:00 13.2° C bedeckt
So, 20.10. 14:00 16.0° C bedeckt
So, 20.10. 8:00 10.8° C bedeckt
So, 20.10. 2:00 11.7° C bewölkt
Ortszeit Temperatur Wetter
Di, 22.10. 1:00 13.2° C wolkig
Di, 22.10. 0:50 13.2° C wolkig
Di, 22.10. 0:40 13.2° C wolkig
Di, 22.10. 0:30 13.6° C bedeckt
Di, 22.10. 0:20 13.6° C bedeckt
Di, 22.10. 0:10 13.7° C bedeckt
Di, 22.10. 0:00 13.9° C bedeckt
Mo, 21.10. 23:30 14.0° C bedeckt
Mo, 21.10. 23:00 13.8° C bedeckt
Mo, 21.10. 22:30 13.7° C bedeckt
Mo, 21.10. 22:00 13.8° C bedeckt
Ortszeit Relative Feuchte Sichtweite
Mo, 21.10. 20:00 93% 11 km
Mo, 21.10. 14:00 87% 11 km
Mo, 21.10. 8:00 99% 100 m
Mo, 21.10. 2:00 97% 2.4 km
So, 20.10. 20:00 93% 21 km
So, 20.10. 14:00 75% 30 km
So, 20.10. 8:00 90% 27 km
So, 20.10. 2:00 87% 35 km
Ortszeit Relative Feuchte Sichtweite
Di, 22.10. 1:00 97% 4.8 km
Di, 22.10. 0:50 97% -
Di, 22.10. 0:40 97% -
Di, 22.10. 0:30 96% 5.0 km
Di, 22.10. 0:20 96% -
Di, 22.10. 0:10 94% -
Di, 22.10. 0:00 94% 5.0 km
Mo, 21.10. 23:30 94% 5.0 km
Mo, 21.10. 23:00 94% 8 km
Mo, 21.10. 22:30 94% 8 km
Mo, 21.10. 22:00 94% 9 km
Ortszeit Niederschlagsmenge Niederschlagsart
Mo, 21.10. 20:00 0.1 l/m2 in 12 Std. Regen
Mo, 21.10. 14:00 0.0 l/m2 in 6 Std. -
Mo, 21.10. 8:00 0.0 l/m2 in 12 Std. -
Mo, 21.10. 2:00 0.0 l/m2 in 6 Std. -
So, 20.10. 20:00 0.1 l/m2 in 12 Std. Regen
So, 20.10. 14:00 0.0 l/m2 in 6 Std. -
So, 20.10. 8:00 0.1 l/m2 in 12 Std. Regen
So, 20.10. 2:00 0.0 l/m2 in 6 Std. -
Ortszeit Niederschlagsmenge Niederschlagsart
Di, 22.10. 1:00 0.0 l/m2 in 1 Std. -
Di, 22.10. 0:50 keine Meldung -
Di, 22.10. 0:40 keine Meldung -
Di, 22.10. 0:30 0.0 l/m2 in 1 Std. -
Di, 22.10. 0:20 keine Meldung -
Di, 22.10. 0:10 keine Meldung -
Di, 22.10. 0:00 0.0 l/m2 in 1 Std. -
Mo, 21.10. 23:30 0.0 l/m2 in 1 Std. -
Mo, 21.10. 23:00 0.0 l/m2 in 1 Std. -
Mo, 21.10. 22:30 0.0 l/m2 in 1 Std. -
Mo, 21.10. 22:00 0.0 l/m2 in 1 Std. -
Ortszeit Stärke Spitze Richtung
km/h Bft. km/h Grad Sektor
Mo, 21.10. 20:00 7 2 14 210° SW
Mo, 21.10. 14:00 4 1 11 260° W
Mo, 21.10. 8:00 4 1 22 330° NW
Mo, 21.10. 2:00 4 1 11 90° O
So, 20.10. 20:00 0 0 14 - -
So, 20.10. 14:00 7 2 18 120° SO
So, 20.10. 8:00 7 2 18 130° SO
So, 20.10. 2:00 11 2 20 180° S
Ortszeit Stärke Spitze Richtung
km/h Bft. km/h Grad Sektor
Di, 22.10. 1:00 4 1 7 200° S
Di, 22.10. 0:50 4 1 - 200° S
Di, 22.10. 0:40 6 1 - 190° S
Di, 22.10. 0:30 4 1 4 150° SO
Di, 22.10. 0:20 4 1 - 150° SO
Di, 22.10. 0:10 4 1 - 120° SO
Di, 22.10. 0:00 0 0 4 - -
Mo, 21.10. 23:30 2 1 4 190° S
Mo, 21.10. 23:00 2 1 7 270° W
Mo, 21.10. 22:30 4 1 7 230° SW
Mo, 21.10. 22:00 2 1 7 250° W
Ortszeit Untergrenze Bedeckung Gattung
total tief tief mittel hoch
Mo, 21.10. 20:00 3000 m 8/8 8/8 - - -
Mo, 21.10. 14:00 180 m 7/8 1/8 - - -
Mo, 21.10. 8:00 <30 m 7/8 0/8 - - -
Mo, 21.10. 2:00 3900 m 8/8 8/8 - - -
So, 20.10. 20:00 3600 m 8/8 8/8 - - -
So, 20.10. 14:00 4200 m 8/8 8/8 - - -
So, 20.10. 8:00 2100 m 8/8 8/8 - - -
So, 20.10. 2:00 2400 m 8/8 7/8 - - -
Ortszeit Bedeckungsgrad in Achtel und Wolkenuntergrenze
Di, 22.10. 1:00 1(3000m) 5(7500m) 8(9000m)
Di, 22.10. 0:50 1(3000m) 5(7500m) 8(9000m)
Di, 22.10. 0:40 3(3000m) 8(8100m) 8(8700m)
Di, 22.10. 0:30 8(3000m) 8(8100m) 8(8700m)
Di, 22.10. 0:20 8(3000m) 8(8100m) 8(8700m)
Di, 22.10. 0:10 8(3000m)
Di, 22.10. 0:00 8(3000m)
Mo, 21.10. 23:30 8(3000m)
Mo, 21.10. 23:00 8(2700m)
Mo, 21.10. 22:30 8(2700m)
Mo, 21.10. 22:00 8(2700m)
Ortszeit Luftdruck NN (hPa) Tendenz (hPa in 3 Std.)
Mo, 21.10. 20:00 1020 + 1,1
Mo, 21.10. 14:00 1018 + 1,4
Mo, 21.10. 8:00 1015 + 1,9
Mo, 21.10. 2:00 1013 0,0
So, 20.10. 20:00 1012 + 0,7
So, 20.10. 14:00 1011 - 0,1
So, 20.10. 8:00 1011 + 1,2
So, 20.10. 2:00 1010 - 0,1
Ortszeit Luftdruck NN (hPa) Tendenz (hPa in 3 Std.)
Di, 22.10. 1:00 1021 + 0,1
Di, 22.10. 0:50 1021 keine Meldung
Di, 22.10. 0:40 1021 keine Meldung
Di, 22.10. 0:30 1021 + 0,4
Di, 22.10. 0:20 1021 keine Meldung
Di, 22.10. 0:10 1021 keine Meldung
Di, 22.10. 0:00 1021 + 0,8
Mo, 21.10. 23:30 1021 + 0,7
Mo, 21.10. 23:00 1021 + 1,1
Mo, 21.10. 22:30 1021 + 1,6
Mo, 21.10. 22:00 1021 + 1,5
Ortszeit Schneehöhe (cm)
Mo, 21.10. 20:00 0
Mo, 21.10. 14:00 0
Mo, 21.10. 8:00 0
Mo, 21.10. 2:00 0
So, 20.10. 20:00 0
So, 20.10. 14:00 0
So, 20.10. 8:00 0
So, 20.10. 2:00 0
Ortszeit Schneehöhe (cm)
Di, 22.10. 1:00 0
Di, 22.10. 0:50 0
Di, 22.10. 0:40 0
Di, 22.10. 0:30 0
Di, 22.10. 0:20 0
Di, 22.10. 0:10 0
Di, 22.10. 0:00 0
Mo, 21.10. 23:30 0
Mo, 21.10. 23:00 0
Mo, 21.10. 22:30 0
Mo, 21.10. 22:00 0
Link zu dieser Seite / Seite empfehlen

Das Wetter in ...